Location: ActonStarParty
(42.4766°N, 71.4538°W)
Time: 22:14:02
(UTC-04:00)

Amateur Radio Satellites - All Passes

Search period start: 23 March 2017 21:44
Search period end: 24 March 2017 21:44
Location: ActonStarParty, 42.4766°N, 71.4538°W

Satellite Date Start Highest point End Downlink Frequencies (MHz)
Time Altitude Azimuth
YUBILEINY 23 Mar 21:51:34 21:55:14 13° 287° (WNW) 21:58:55 435.215
UNISAT 6 23 Mar 21:51:49 21:54:37 16° 91° (E) 21:57:21 437.425
FO-29 23 Mar 21:56:04 21:58:42 13° 84° (E) 22:01:13 435.910
Oscar 11 23 Mar 22:01:26 22:04:20 18° 268° (W) 22:07:15 .
PRISM 23 Mar 22:02:30 22:06:26 40° 99° (E) 22:10:22 437.425
ZACube-1 23 Mar 22:03:13 22:05:45 15° 270° (W) 22:08:17 437.345
LO-87 23 Mar 22:05:04 22:07:39 19° 68° (ENE) 22:10:15 145.935 - 145.965
ESTCUBE 1 23 Mar 22:13:53 22:16:45 17° 63° (ENE) 22:19:35 437.505/2401.250
ISS 23 Mar 22:18:26 22:21:41 71° 143° (SE) 22:24:58 437.550
Tancredo 1 23 Mar 22:33:03 22:36:13 75° 329° (NNW) 22:39:24 437.200
AO-85 23 Mar 22:36:30 22:40:42 44° 308° (NW) 22:44:41 145.980
DELFI C3 23 Mar 22:39:48 22:42:32 18° 267° (W) 22:45:17 145.870
SPROUT 23 Mar 23:12:43 23:15:37 18° 65° (ENE) 23:18:32 437.525
TIGRISAT 23 Mar 23:18:02 23:22:27 64° 286° (WNW) 23:26:45 435.000
50 SAT 23 Mar 23:19:15 23:20:30 12° 64° (ENE) 23:21:45 437.505
UNISAT 6 23 Mar 23:27:18 23:31:37 47° 288° (WNW) 23:35:47 437.425
DX 1 23 Mar 23:28:46 23:30:59 14° 62° (ENE) 23:33:12 434.975-435.025
POLYITAN 1 23 Mar 23:29:17 23:31:36 14° 91° (E) 23:33:53 437.675
RS-15 23 Mar 23:29:44 23:41:29 56° 248° (WSW) 23:52:42 29.354- 29.394
QB50P2 23 Mar 23:33:18 23:36:08 17° 92° (E) 23:38:57 145.880/145.840
BEESAT 3 23 Mar 23:37:25 23:41:20 86° 127° (SE) 23:45:20 437.485
LO-87 23 Mar 23:37:50 23:40:55 27° 264° (W) 23:44:03 145.935 - 145.965
FO-29 23 Mar 23:38:33 23:44:50 84° 286° (WNW) 23:50:22 435.910
PRISM 23 Mar 23:38:35 23:41:25 18° 295° (WNW) 23:44:16 437.425
VELOX 1 23 Mar 23:38:56 23:43:02 39° 70° (ENE) 23:47:09 145.980
SO-50 23 Mar 23:45:06 23:49:15 35° 48° (NE) 23:53:22 436.795
BEESAT 2 23 Mar 23:46:05 23:49:47 41° 117° (ESE) 23:53:35 435.950
ESTCUBE 1 23 Mar 23:48:47 23:53:08 51° 260° (W) 23:57:31 437.505/2401.250
DUCHIFAT 1 23 Mar 23:50:12 23:53:21 20° 93° (E) 23:56:28 145.980
ISS 23 Mar 23:55:40 23:58:26 24° 342° (NNW) 00:01:12 437.550
Tancredo 1 24 Mar 00:10:19 00:12:46 20° 346° (NNW) 00:15:14 437.200
UKube-1 24 Mar 00:13:37 00:17:17 28° 68° (ENE) 00:20:58 .
BUGSAT 1 24 Mar 00:19:59 00:22:15 14° 91° (E) 00:24:30 437.445
AIST 2D 24 Mar 00:28:22 00:31:48 56° 285° (WNW) 00:35:13 435.315
NANOSAT C BR1 24 Mar 00:33:44 00:37:58 69° 101° (ESE) 00:42:09 145.865
EO-79 24 Mar 00:36:15 00:40:32 80° 104° (ESE) 00:44:45 145.935-145.965
SPROUT 24 Mar 00:47:05 00:51:11 44° 261° (W) 00:55:20 437.525
50 SAT 24 Mar 00:49:51 00:53:08 43° 260° (W) 00:56:29 437.505
DX 1 24 Mar 01:02:22 01:06:39 61° 259° (W) 01:10:59 434.975-435.025
POLYITAN 1 24 Mar 01:03:33 01:07:40 50° 288° (WNW) 01:11:44 437.675
QB50P2 24 Mar 01:08:06 01:12:07 41° 289° (WNW) 01:16:04 145.880/145.840
VELOX 1 24 Mar 01:16:25 01:19:38 20° 267° (W) 01:22:51 145.980
BEESAT 3 24 Mar 01:17:36 01:19:31 13° 322° (NW) 01:21:26 437.485
BEESAT 2 24 Mar 01:24:37 01:27:43 21° 315° (NW) 01:30:52 435.950
DUCHIFAT 1 24 Mar 01:25:16 01:29:07 35° 290° (WNW) 01:32:56 145.980
FO-29 24 Mar 01:25:43 01:28:44 14° 307° (NW) 01:31:38 435.910
SO-50 24 Mar 01:25:45 01:29:36 28° 246° (WSW) 01:33:25 436.795
ISS 24 Mar 01:33:31 01:35:44 16° 2° (N) 01:37:57 437.550
Tancredo 1 24 Mar 01:47:38 01:49:48 17° 6° (N) 01:51:57 437.200
UKube-1 24 Mar 01:49:36 01:53:15 27° 264° (W) 01:56:56 .
BUGSAT 1 24 Mar 01:53:50 01:57:54 49° 288° (WNW) 02:01:54 437.445
Gurwin Techsat 1B 24 Mar 01:54:48 01:59:15 26° 94° (E) 02:03:40 435.225
Oscar 19 24 Mar 02:04:42 02:09:48 56° 101° (E) 02:14:53 437.125/150
NANOSAT C BR1 24 Mar 02:11:32 02:13:06 12° 299° (WNW) 02:14:40 145.865
EO-79 24 Mar 02:14:56 02:15:38 10° 300° (WNW) 02:16:19 145.935-145.965
BEESAT 24 Mar 02:19:15 02:23:49 46° 71° (ENE) 02:28:24 436.000
O/OREOS (USA 219) 24 Mar 02:32:55 02:36:46 25° 57° (ENE) 02:40:35 437.305
ITUPSAT 1 24 Mar 02:33:12 02:37:56 63° 73° (ENE) 02:42:41 437.325
MOZHAYETS 4 24 Mar 03:03:15 03:07:42 50° 72° (ENE) 03:12:09
KKS-1 24 Mar 03:08:54 03:11:17 14° 61° (ENE) 03:13:40 437.445
ISS 24 Mar 03:09:59 03:12:57 30° 22° (NNE) 03:15:56 437.550
Tancredo 1 24 Mar 03:23:34 03:26:37 38° 26° (NNE) 03:29:38 437.200
Gurwin Techsat 1B 24 Mar 03:34:20 03:39:18 41° 292° (WNW) 03:44:14 435.225
Oscar 19 24 Mar 03:45:02 03:48:40 20° 298° (WNW) 03:52:19 437.125/150
ITAMSAT 1 24 Mar 03:45:03 03:50:04 46° 100° (E) 03:55:02 435.822/435.867
CUBESAT XI-V 24 Mar 03:48:07 03:51:52 25° 67° (ENE) 03:55:37 437.345
STARS 24 Mar 03:52:49 03:55:49 18° 64° (ENE) 03:58:50 437.465
BEESAT 24 Mar 03:58:24 04:01:49 19° 267° (W) 04:05:15 436.000
AO-7 24 Mar 04:07:09 04:15:15 54° 102° (ESE) 04:23:18 .
O/OREOS (USA 219) 24 Mar 04:12:02 04:16:15 36° 255° (WSW) 04:20:26 437.305
ITUPSAT 1 24 Mar 04:13:35 04:16:10 14° 269° (W) 04:18:46 437.325
MOZHAYETS 4 24 Mar 04:42:13 04:45:08 17° 269° (W) 04:48:04
KKS-1 24 Mar 04:42:54 04:47:18 63° 258° (WSW) 04:51:46 437.445
ISS 24 Mar 04:46:21 04:49:31 45° 220° (SW) 04:52:41 437.550
Tancredo 1 24 Mar 04:59:52 05:02:41 29° 223° (SW) 05:05:30 437.200
M-CUBED/EXP-1 PRIME 24 Mar 05:12:58 05:16:03 26° 62° (ENE) 05:19:22 437.505
CUBESAT XI-V 24 Mar 05:24:57 05:29:06 33° 264° (W) 05:33:16 437.345
ITAMSAT 1 24 Mar 05:25:09 05:29:14 24° 297° (WNW) 05:33:17 435.822/435.867
AO-85 24 Mar 05:27:06 05:30:05 20° 44° (NE) 05:33:07 145.980
STARS 24 Mar 05:27:33 05:31:48 46° 260° (W) 05:36:06 437.465
XW-2D 24 Mar 05:59:26 06:01:34 15° 92° (E) 06:03:41 145.860 - 145.880
AO-7 24 Mar 06:00:22 06:07:44 37° 302° (WNW) 06:15:05 .
DOVE 4 24 Mar 06:04:10 06:08:50 30° 94° (E) 06:13:26 437.250
XW-2B 24 Mar 06:05:02 06:07:28 16° 93° (E) 06:09:53 145.730 - 145.750
NUDT-PHONESAT 24 Mar 06:09:28 06:11:35 15° 92° (E) 06:13:41 437.300
KAITUO 1B 24 Mar 06:12:49 06:15:12 16° 93° (E) 06:17:34 145.475/437.950
XW-2C 24 Mar 06:14:40 06:17:37 21° 94° (E) 06:20:32 145.795 - 145.815
STRAND 1 24 Mar 06:43:47 06:48:38 43° 69° (ENE) 06:53:29 437.568
M-CUBED/EXP-1 PRIME 24 Mar 06:47:38 06:50:31 22° 261° (W) 06:53:35 437.505
CUTE-I 24 Mar 06:53:04 06:58:20 54° 101° (E) 07:03:31 437.470
YUBILEINY 24 Mar 06:58:14 07:05:13 28° 82° (E) 07:12:10 435.215
LilacSat-2 24 Mar 07:04:16 07:08:03 85° 283° (WNW) 07:11:49 437.200
CUTE 1.7 + AOD 2 24 Mar 07:06:29 07:07:30 11° 89° (E) 07:08:32 437.475
AO-85 24 Mar 07:06:55 07:10:38 41° 242° (WSW) 07:14:26 145.980
XW-2A 24 Mar 07:07:27 07:08:25 11° 91° (E) 07:09:22 145.665 - 145.685
XW-2F 24 Mar 07:08:06 07:11:51 82° 281° (W) 07:15:34 145.980 - 146.000
HO-68 24 Mar 07:13:42 07:19:07 23° 92° (E) 07:24:31 435.675
NO-84 24 Mar 07:23:13 07:25:33 23° 131° (SE) 07:27:54 435.350 FM
XW-2D 24 Mar 07:32:26 07:35:55 37° 288° (WNW) 07:39:24 145.860 - 145.880
XW-2B 24 Mar 07:38:23 07:41:47 33° 289° (WNW) 07:45:09 145.730 - 145.750
DOVE 4 24 Mar 07:41:39 07:46:29 36° 291° (WNW) 07:51:16 437.250
NUDT-PHONESAT 24 Mar 07:42:16 07:45:40 36° 288° (WNW) 07:49:02 437.300
KAITUO 1B 24 Mar 07:45:59 07:49:19 32° 289° (WNW) 07:52:38 145.475/437.950
XW-2C 24 Mar 07:48:39 07:51:46 25° 291° (WNW) 07:54:54 145.795 - 145.815
BEESAT 3 24 Mar 07:53:37 07:57:37 60° 54° (NE) 08:01:34 437.485
CUBEBUG 2 24 Mar 07:53:53 07:56:53 18° 91° (E) 07:59:48 437.445
BEESAT 2 24 Mar 08:03:04 08:06:46 32° 49° (NE) 08:10:25 435.950
FO-29 24 Mar 08:10:53 08:12:43 11° 50° (NE) 08:14:33 435.910
STRAND 1 24 Mar 08:23:51 08:27:57 24° 266° (W) 08:32:05 437.568
AAUSAT CUBESAT 2 24 Mar 08:31:06 08:34:48 30° 96° (E) 08:38:28 437.432
CUTE-I 24 Mar 08:33:58 08:37:57 22° 298° (WNW) 08:41:56 437.470
SEEDS 24 Mar 08:38:00 08:42:12 78° 102° (ESE) 08:46:23 437.485
XW-2A 24 Mar 08:38:11 08:41:24 40° 287° (WNW) 08:44:34 145.665 - 145.685
CUTE 1.7 + AOD 2 24 Mar 08:39:35 08:43:46 66° 285° (WNW) 08:47:56 437.475
TIGRISAT 24 Mar 08:42:39 08:45:02 14° 61° (ENE) 08:47:22 435.000
AO-73 24 Mar 08:43:25 08:46:26 19° 92° (E) 08:49:23 145.935
UNISAT 6 24 Mar 08:51:05 08:54:12 18° 64° (ENE) 08:57:20 437.425
PRISM 24 Mar 08:52:24 08:55:59 31° 69° (ENE) 08:59:36 437.425
YUBILEINY 24 Mar 08:52:38 09:01:18 65° 281° (WNW) 09:10:00 435.215
HO-68 24 Mar 09:00:17 09:07:24 70° 290° (WNW) 09:14:31 435.675
NO-84 24 Mar 09:00:28 09:03:00 28° 329° (NNW) 09:05:34 435.350 FM
UWE-3 24 Mar 09:01:30 09:05:49 58° 100° (E) 09:09:58 435.000/436.395/437.385
CUBEBUG 2 24 Mar 09:29:30 09:33:44 43° 289° (WNW) 09:37:49 437.445
BEESAT 3 24 Mar 09:32:54 09:34:43 13° 251° (WSW) 09:36:32 437.485
BEESAT 2 24 Mar 09:41:02 09:44:24 25° 246° (WSW) 09:47:45 435.950
Oscar 11 24 Mar 09:46:05 09:50:25 81° 102° (ESE) 09:54:42 .
ZACube-1 24 Mar 09:48:34 09:52:51 73° 285° (WNW) 09:57:00 437.345
FO-29 24 Mar 09:48:43 09:56:13 51° 69° (ENE) 10:03:20 435.910
PCSat 24 Mar 09:56:54 10:01:55 40° 112° (ESE) 10:06:57 145.827
AAUSAT CUBESAT 2 24 Mar 10:06:51 10:10:06 23° 292° (WNW) 10:13:21 437.432
DELFI C3 24 Mar 10:14:41 10:18:35 50° 100° (E) 10:22:27 145.870
TIGRISAT 24 Mar 10:16:25 10:21:07 71° 258° (WSW) 10:25:48 435.000
SEEDS 24 Mar 10:16:41 10:17:15 10° 299° (WNW) 10:17:49 437.485
AO-73 24 Mar 10:18:54 10:22:49 37° 289° (WNW) 10:26:39 145.935
POLYITAN 1 24 Mar 10:23:04 10:25:04 13° 62° (ENE) 10:27:03 437.675
UNISAT 6 24 Mar 10:25:54 10:30:30 53° 260° (W) 10:35:05 437.425
QB50P2 24 Mar 10:26:57 10:29:28 15° 63° (ENE) 10:31:59 145.880/145.840
PRISM 24 Mar 10:28:11 10:31:18 21° 265° (W) 10:34:27 437.425
UWE-3 24 Mar 10:39:29 10:41:45 14° 298° (WNW) 10:43:59 435.000/436.395/437.385
DUCHIFAT 1 24 Mar 10:42:57 10:45:45 17° 65° (ENE) 10:48:34 145.980
HO-68 24 Mar 10:50:16 10:53:53 15° 310° (NW) 10:57:30 435.675
YUBILEINY 24 Mar 10:56:15 11:00:06 13° 305° (NW) 11:03:57 435.215
AIST 2D 24 Mar 11:02:57 11:06:24 51° 75° (ENE) 11:09:52 435.315
LO-87 24 Mar 11:04:13 11:07:03 21° 94° (E) 11:09:51 145.935 - 145.965
BUGSAT 1 24 Mar 11:11:04 11:12:46 12° 62° (ENE) 11:14:28 437.445
Oscar 11 24 Mar 11:25:08 11:25:53 10° 299° (WNW) 11:26:37 .
NANOSAT C BR1 24 Mar 11:25:57 11:30:06 54° 73° (ENE) 11:34:16 145.865
EO-79 24 Mar 11:28:44 11:32:58 63° 74° (ENE) 11:37:13 145.935-145.965
FO-29 24 Mar 11:34:14 11:41:18 36° 265° (W) 11:48:07 435.910
PCSat 24 Mar 11:40:31 11:45:22 33° 311° (NW) 11:50:15 145.827
ESTCUBE 1 24 Mar 11:40:36 11:44:35 30° 96° (E) 11:48:34 437.505/2401.250
RS-15 24 Mar 11:43:22 11:52:24 26° 100° (E) 12:01:37 29.354- 29.394
Oscar 19 24 Mar 11:46:48 11:48:43 12° 57° (ENE) 11:50:38 437.125/150
DELFI C3 24 Mar 11:50:55 11:52:56 14° 296° (WNW) 11:54:58 145.870
POLYITAN 1 24 Mar 11:56:03 12:00:19 64° 259° (W) 12:04:35 437.675
QB50P2 24 Mar 12:00:39 12:04:49 52° 260° (W) 12:09:03 145.880/145.840
50 SAT 24 Mar 12:15:29 12:16:21 11° 91° (E) 12:17:12 437.505
DUCHIFAT 1 24 Mar 12:17:00 12:21:04 44° 261° (W) 12:25:11 145.980
SPROUT 24 Mar 12:32:13 12:35:58 28° 96° (E) 12:39:41 437.525
LO-87 24 Mar 12:37:25 12:40:28 25° 290° (WNW) 12:43:29 145.935 - 145.965
BUGSAT 1 24 Mar 12:43:21 12:47:33 68° 259° (WSW) 12:51:48 437.445
DX 1 24 Mar 12:50:24 12:53:47 21° 94° (E) 12:57:08 434.975-435.025
NANOSAT C BR1 24 Mar 13:03:58 13:06:08 14° 269° (W) 13:08:18 145.865
VELOX 1 24 Mar 13:04:05 13:08:34 73° 102° (ESE) 13:13:01 145.980
EO-79 24 Mar 13:07:37 13:09:08 12° 270° (W) 13:10:39 145.935-145.965
Gurwin Techsat 1B 24 Mar 13:16:16 13:21:18 45° 69° (ENE) 13:26:21 435.225
ESTCUBE 1 24 Mar 13:17:31 13:21:17 27° 293° (WNW) 13:25:02 437.505/2401.250
AO-7 24 Mar 13:18:00 13:23:19 19° 48° (NE) 13:28:37 .
Oscar 19 24 Mar 13:22:07 13:27:14 87° 76° (ENE) 13:32:23 437.125/150
ITAMSAT 1 24 Mar 13:28:47 13:30:07 11° 56° (NE) 13:31:27 435.822/435.867
UKube-1 24 Mar 13:35:06 13:39:16 45° 100° (E) 13:43:25 .
50 SAT 24 Mar 13:46:16 13:49:38 45° 287° (WNW) 13:52:59 437.505
RS-15 24 Mar 13:51:13 14:03:16 88° 304° (NW) 14:15:45 29.354- 29.394
NO-84 24 Mar 13:55:43 13:58:34 30° 32° (NNE) 14:01:38 435.350 FM
SPROUT 24 Mar 14:08:12 14:11:46 26° 292° (WNW) 14:15:18 437.525
BEESAT 24 Mar 14:21:21 14:22:25 11° 89° (E) 14:23:29 436.000
DX 1 24 Mar 14:26:01 14:30:03 36° 290° (WNW) 14:34:03 434.975-435.025
ITUPSAT 1 24 Mar 14:34:26 14:37:09 15° 91° (E) 14:39:50 437.325
VELOX 1 24 Mar 14:42:34 14:44:25 12° 299° (WNW) 14:46:15 145.980
Gurwin Techsat 1B 24 Mar 14:57:11 15:01:25 24° 266° (W) 15:05:41 435.225
MOZHAYETS 4 24 Mar 15:00:04 15:01:15 11° 89° (E) 15:02:26
ITAMSAT 1 24 Mar 15:03:27 15:08:41 76° 73° (ENE) 15:13:55 435.822/435.867
Oscar 19 24 Mar 15:05:50 15:07:13 11° 272° (W) 15:08:35 437.125/150
AO-7 24 Mar 15:06:28 15:14:47 76° 68° (ENE) 15:23:05 .
UKube-1 24 Mar 15:12:02 15:14:57 18° 296° (WNW) 15:17:52 .
NO-84 24 Mar 15:33:09 15:36:08 31° 227° (SW) 15:39:21 435.350 FM
SO-50 24 Mar 15:39:27 15:44:05 77° 123° (ESE) 15:48:42 436.795
BEESAT 24 Mar 15:56:00 16:00:47 81° 286° (WNW) 16:05:32 436.000
RS-15 24 Mar 16:06:45 16:17:40 36° 330° (NNW) 16:28:46 29.354- 29.394
ITUPSAT 1 24 Mar 16:10:39 16:15:21 59° 288° (WNW) 16:20:01 437.325
KKS-1 24 Mar 16:33:38 16:37:13 23° 94° (E) 16:40:48 437.445
MOZHAYETS 4 24 Mar 16:34:22 16:38:55 74° 285° (WNW) 16:43:27
CUTE-I 24 Mar 16:38:54 16:41:31 14° 58° (ENE) 16:44:08 437.470
ITAMSAT 1 24 Mar 16:46:10 16:48:41 14° 270° (W) 16:51:14 435.822/435.867
O/OREOS (USA 219) 24 Mar 16:46:15 16:49:50 24° 102° (ESE) 16:53:27 437.305
XW-2C 24 Mar 16:57:48 16:59:35 13° 65° (ENE) 17:01:23 145.795 - 145.815
AO-7 24 Mar 17:01:55 17:08:17 24° 267° (W) 17:14:39 .
YUBILEINY 24 Mar 17:07:47 17:11:49 14° 56° (NE) 17:15:50 435.215
DOVE 4 24 Mar 17:10:14 17:14:14 29° 67° (ENE) 17:18:28 437.250
STARS 24 Mar 17:16:18 17:20:10 29° 96° (E) 17:24:00 437.465
CUBESAT XI-V 24 Mar 17:20:02 17:24:37 56° 100° (E) 17:29:11 437.345
SO-50 24 Mar 17:21:58 17:25:05 18° 321° (NW) 17:28:11 436.795
BEESAT 24 Mar 17:37:33 17:37:44 10° 303° (WNW) 17:37:56 436.000
HO-68 24 Mar 17:44:20 17:49:10 20° 54° (NE) 17:54:00 435.675
LilacSat-2 24 Mar 17:46:22 17:50:05 49° 74° (ENE) 17:53:47 437.200
XW-2F 24 Mar 17:49:16 17:52:57 48° 73° (ENE) 17:56:36 145.980 - 146.000
KKS-1 24 Mar 18:09:46 18:13:50 34° 291° (WNW) 18:17:53 437.445
XW-2D 24 Mar 18:13:35 18:17:23 77° 258° (WSW) 18:21:12 145.860 - 145.880
CUTE-I 24 Mar 18:15:24 18:20:47 89° 257° (WSW) 18:26:12 437.470
XW-2B 24 Mar 18:19:29 18:23:16 67° 259° (W) 18:27:04 145.730 - 145.750
NUDT-PHONESAT 24 Mar 18:21:30 18:25:16 78° 259° (WSW) 18:29:01 437.300
M-CUBED/EXP-1 PRIME 24 Mar 18:24:29 18:28:07 22° 99° (E) 18:31:45 437.505
O/OREOS (USA 219) 24 Mar 18:24:53 18:29:02 35° 300° (WNW) 18:33:15 437.305
RS-15 24 Mar 18:25:34 18:35:15 25° 5° (N) 18:44:52 29.354- 29.394
KAITUO 1B 24 Mar 18:25:53 18:29:37 68° 258° (WSW) 18:33:21 145.475/437.950
XW-2C 24 Mar 18:29:40 18:33:23 48° 261° (W) 18:37:05 145.795 - 145.815
PCSat 24 Mar 18:43:49 18:48:54 39° 52° (NE) 18:53:57 145.827
DOVE 4 24 Mar 18:47:46 18:51:50 31° 266° (W) 18:56:10 437.250
CUBEBUG 2 24 Mar 18:52:17 18:55:34 19° 64° (ENE) 18:58:49 437.445
STARS 24 Mar 18:52:41 18:56:25 27° 293° (WNW) 19:00:09 437.465
STRAND 1 24 Mar 18:55:17 18:57:43 13° 89° (E) 19:00:09 437.568
CUBESAT XI-V 24 Mar 18:58:38 19:01:33 17° 297° (WNW) 19:04:27 437.345
YUBILEINY 24 Mar 19:01:52 19:10:34 67° 79° (E) 19:19:12 435.215
XW-2A 24 Mar 19:09:31 19:12:57 66° 75° (ENE) 19:16:24 145.665 - 145.685
ZACube-1 24 Mar 19:12:14 19:13:03 10° 60° (ENE) 19:13:53 437.345
AAUSAT CUBESAT 2 24 Mar 19:22:06 19:25:18 22° 67° (ENE) 19:28:30 437.432
LilacSat-2 24 Mar 19:23:07 19:24:38 12° 269° (W) 19:26:09 437.200
XW-2F 24 Mar 19:25:55 19:27:21 12° 269° (W) 19:28:48 145.980 - 146.000
HO-68 24 Mar 19:28:49 19:35:59 88° 255° (WSW) 19:43:11 435.675
SEEDS 24 Mar 19:29:54 19:33:58 56° 74° (ENE) 19:38:03 437.485
CUTE 1.7 + AOD 2 24 Mar 19:32:18 19:36:31 88° 248° (WSW) 19:40:45 437.475
AO-73 24 Mar 19:39:27 19:42:33 18° 65° (ENE) 19:45:37 145.935
UWE-3 24 Mar 19:58:16 20:02:47 51° 73° (ENE) 20:07:16 435.000/436.395/437.385
M-CUBED/EXP-1 PRIME 24 Mar 19:58:18 20:02:38 42° 294° (WNW) 20:07:02 437.505
CUTE-I 24 Mar 20:00:02 20:01:33 11° 272° (W) 20:03:04 437.470
CUBEBUG 2 24 Mar 20:27:08 20:31:46 51° 261° (W) 20:36:24 437.445
PCSat 24 Mar 20:27:24 20:32:12 33° 250° (WSW) 20:36:59 145.827
STRAND 1 24 Mar 20:32:19 20:37:26 74° 286° (WNW) 20:42:31 437.568
RS-15 24 Mar 20:40:35 20:52:15 44° 38° (NE) 21:03:28 29.354- 29.394
Oscar 11 24 Mar 20:41:01 20:45:18 66° 75° (ENE) 20:49:35 .
ZACube-1 24 Mar 20:44:04 20:48:38 89° 275° (W) 20:53:11 437.345
AAUSAT CUBESAT 2 24 Mar 20:56:58 21:00:36 30° 264° (W) 21:04:15 437.432
YUBILEINY 24 Mar 20:59:46 21:06:36 27° 279° (W) 21:13:26 435.215
DELFI C3 24 Mar 21:00:48 21:04:15 30° 70° (ENE) 21:07:44 145.870
SEEDS 24 Mar 21:08:15 21:10:00 12° 270° (W) 21:11:46 437.485
AO-73 24 Mar 21:14:03 21:18:26 47° 261° (W) 21:22:48 145.935
HO-68 24 Mar 21:20:39 21:24:38 15° 272° (W) 21:28:38 435.675
AO-85 24 Mar 21:21:20 21:25:38 48° 119° (ESE) 21:29:39 145.980
ISS 24 Mar 21:26:23 21:29:24 36° 139° (SE) 21:32:28 437.550
Tancredo 1 24 Mar 21:36:09 21:39:13 51° 142° (SE) 21:42:20 437.200
UWE-3 24 Mar 21:36:28 21:39:29 17° 269° (W) 21:42:31 435.000/436.395/437.385
